Regional Weather Roundup
Issued by NWS Newport/Morehead, NC

Current Version | Previous Version | Graphics & Text | Print | Product List | Glossary Off
Versions: 1 2 3 4 5 6 7 8 9 10 11 12 13 14 15 16 17 18 19 20 21 22 23 24 25 26 27 28 29 30 31 32 33 34 35 36 37 38 39 40 41 42 43 44 45 46 47 48 49 50

000
ASUS42 KMHX 230025
RWRMHX
WEATHER ROUNDUP FOR EASTERN NORTH CAROLINA
NATIONAL WEATHER SERVICE NEWPORT/MOREHEAD CITY NC
800 PM EDT TUE AUG 22 2017

NOTE: "FAIR" INDICATES FEW OR NO CLOUDS BELOW 12,000 FEET
WITH NO SIGNIFICANT WEATHER AND/OR OBSTRUCTIONS TO VISIBILITY

NCZ015>017-031-032-045>047-102-103-230100-
NORTH COAST

CITY           SKY/WX    TMP DP  RH WIND       PRES   REMARKS
EDENTON        CLEAR     84  76  78 CALM      29.96S
ELIZABETH CITY CLEAR     83  76  79 S10       29.95S
KITTY HAWK     CLEAR     82  74  78 S7        29.95S
MANTEO         PTCLDY    82  77  83 SW17      29.97R

$$

NCZ045>047-081-094-103-104-230100-
CENTRAL COAST

CITY           SKY/WX    TMP DP  RH WIND       PRES   REMARKS
FRISCO         PTCLDY    83  77  82 SW12      29.99R

$$

NCZ095-097-098-100-101-230100-
SOUTHERN COAST

CITY           SKY/WX    TMP DP  RH WIND       PRES   REMARKS
BEAUFORT       PTCLDY    82  78  88 SW13      29.99S
CEDAR ISLAND   NOT AVBL
JACKSONVILLE   PTCLDY    81  77  88 S8        29.97S
PINEY ISLAND   CLEAR    N/A N/A N/A S6        29.98S
WILMINGTON     CLEAR     83  74  74 SW10      29.99R


$$

NCZ011>013-027>030-043-044-078>080-089-090>093-098-230100-
COASTAL PLAIN

CITY           SKY/WX    TMP DP  RH WIND       PRES   REMARKS
AHOSKIE          N/A     80  76  88 CALM      29.94S
CLINTON        CLEAR     83  76  78 SW6       29.97S
ELIZABETHTOWN  NOT AVBL
GOLDSBORO      CLEAR     83  79  87 S6        29.95S
GREENVILLE     CLOUDY    82  75  78 S12       29.98R
HAVELOCK       PTCLDY    82  75  79 S8        29.99S
KENANSVILLE    CLOUDY    82  75  78 S3        29.97R
KINSTON        CLOUDY    82  75  78 S9        29.97S
NEW BERN       PTCLDY    81  77  88 S7        29.98F
RICHLANDS      CLOUDY    80  78  94 S8        29.98S
ROCKY MOUNT    CLEAR     83  76  79 S5        29.94S
WASHINGTON     CLEAR     82  75  80 SW6       29.96S
WHITEVILLE     MOCLDY    82  76  81 S5        29.98S

$$

AMZ130-135-150-152-154-156-158-170-250-252-270-ANZ085-086-088-633-658-670-230100-
MARINE OBSERVATIONS

STATION/POSITION TIME  TEMP    WIND        PRES    WAVE   SWELL
                       AIR SEA DIR/SP/G            HT/PER HT/PER
                 (UTC) (F)     (DEG/KT/KT) (MB)    (FT/S) (FT/S)
CHESAPEAKE LIGHT NOT AVBL
64 E VA BEACH    2350   81 80  200/ 14/ 16 1014.8    4/11   3/11
DUCK             0000   84 74  210/ 14/ 17 1013.9
2 E DUCK         2330      80                N/A     3/10   2/11
OREGON INLET     0000   83 87  190/ 19/ 22 1014.6
13E OREGON INLT  2348      80                N/A     4/11   3/11
HATTERAS CG      0000   83 84  220/  9/ 14 1015.5
DIAMOND BUOY     2350   84 86  210/ 17/ 19 1015.1    4/ 9   3/ 9
CAPE LOOKOUT     0000   83     210/ 12/ 14 1015.1
BEAUFORT LAB     0000   83 82  210/ 11/ 16 1014.8
30 SE NEW RVR IN 0008   81 84  230/ 14/ 17 1015.5
30 SE NEW RVR IN 0013      84                N/A     4/10   2/11
27 SE WRIGHTSVLE 0008   83 84  200/ 14/ 19 1015.3
5 SE WRIGHTSVLE  0008   83 83  210/ 14/ 19 1015.3
225 S CAPE HAT   2350   82 85  150/  6/  8 1017.3    4/ 9   5/ 9
41 SE CHARLESTON 0010   83 85  210/ 14/ 16 1015.5

$$




USA.gov is the U.S. government's official web portal to all federal, state and local government web resources and services.